Weather History for PAMR - January, 2011

Change the Weather History Date:

Saturday, January 8, 2011

  Actual Average Record
Temperature  
Mean Temperature 14 °F -  
Max Temperature 19 °F 20 °F 37 °F (2001)
Min Temperature 8 °F 7 °F -18 °F (2009)
Degree Days  
Heating Degree Days 52    
Moisture  
Dew Point 7 °F    
Average Humidity 76    
Maximum Humidity 85    
Minimum Humidity 68    
Precipitation  
Precipitation 0.00 in - - ()
Snow  
Snow 0.00 in - - ()
Snow Depth 3.00 in    
Sea Level Pressure  
Sea Level Pressure 30.61 in    
Wind  
Wind Speed 1 mph (ENE)    
Max Wind Speed 6 mph    
Max Gust Speed -    
Visibility 3 miles    
Events Fog    
Averages and records for this station are not official NWS values.
T = Trace of Precipitation, MM = Missing Value Source: NWS Daily Summary

Daily Weather History Graph

Daily Weather History Graph

Search for Another Location

Airport or City:

Trip Planner

Search our weather history database for the weather conditions in past years. The results will help you decide how hot, cold, wet, or windy it might be!

Date:

Astronomy

Jan. 08, 2011 Rise Set
Actual Time 10:07 AM AKST 4:05 PM AKST
Civil Twilight 9:08 AM AKST 5:04 PM AKST
Nautical Twilight 8:10 AM AKST 6:02 PM AKST
Astronomical Twilight 7:17 AM AKST 6:55 PM AKST
Moon 10:49 AM AKST (1/8) 10:26 PM AKST (1/8)
Length of Visible Light 7h 55m
Length of Day
5h 58m
Waxing Crescent, 19% of the Moon is Illuminated
Jan 8
Waxing Crescent
Jan 12
First Quarter
Jan 19
Full
Jan 26
Last Quarter
Feb 2
New

Hourly Weather History & Observations

Time (AKST) Temp. Windchill Dew Point Humidity Pressure Visibility Wind Dir Wind Speed Gust Speed Precip Events Conditions
12:44 AM 14.0 °F - 6.8 °F 73% 30.52 in 0.5 mi Calm Calm - N/A Fog Light Freezing Fog
12:53 AM 14.0 °F 8.2 °F 7.0 °F 74% 30.53 in 0.5 mi NNE 3.5 mph - N/A Fog Light Freezing Fog
1:32 AM 15.8 °F 10.2 °F 6.8 °F 68% 30.52 in 1.0 mi North 3.5 mph - N/A   Mist
1:46 AM 12.2 °F - 6.8 °F 79% 30.53 in 2.0 mi Calm Calm - N/A   Mist
1:53 AM 12.0 °F 5.9 °F 5.0 °F 73% 30.54 in 2.0 mi NE 3.5 mph - N/A   Overcast
2:27 AM 14.0 °F - 8.6 °F 79% 30.53 in 1.0 mi Calm Calm - N/A   Overcast
2:30 AM 14.0 °F - 8.6 °F 79% 30.54 in 1.0 mi Calm Calm - N/A   Mist
2:33 AM 14.0 °F - 8.6 °F 79% 30.54 in 0.5 mi Calm Calm - N/A Fog Light Freezing Fog
2:44 AM 15.8 °F - 8.6 °F 73% 30.54 in 0.2 mi Calm Calm - N/A Fog Light Freezing Fog
2:53 AM 15.1 °F - 8.1 °F 74% 30.55 in 0.2 mi Calm Calm - N/A Fog Light Freezing Fog
3:05 AM 12.2 °F - 8.6 °F 85% 30.54 in 0.5 mi Calm Calm - N/A Fog Light Freezing Fog
3:18 AM 12.2 °F - 6.8 °F 79% 30.54 in 1.0 mi Calm Calm - N/A   Mist
3:26 AM 12.2 °F - 6.8 °F 79% 30.54 in 2.0 mi Calm Calm - N/A   Overcast
3:53 AM 14.0 °F - 8.1 °F 77% 30.55 in 2.0 mi Calm Calm - N/A   Overcast
4:03 AM 14.0 °F - 8.6 °F 79% 30.54 in 3.0 mi Calm Calm - N/A   Overcast
4:14 AM 14.0 °F - 8.6 °F 79% 30.54 in 4.0 mi Calm Calm - N/A   Scattered Clouds
4:53 AM 12.9 °F - 6.1 °F 74% 30.56 in 6.0 mi Calm Calm - N/A   Scattered Clouds
5:53 AM 12.9 °F - 6.1 °F 74% 30.56 in 8.0 mi Calm Calm - N/A   Scattered Clouds
6:22 AM 10.4 °F - 3.2 °F 73% 30.56 in 5.0 mi Calm Calm - N/A   Mostly Cloudy
6:53 AM 10.9 °F 2.9 °F 3.9 °F 73% 30.58 in 5.0 mi ESE 4.6 mph - N/A   Scattered Clouds
7:02 AM 12.2 °F - 5.0 °F 73% 30.56 in 5.0 mi Calm Calm - N/A   Scattered Clouds
7:38 AM 12.2 °F 6.1 °F 5.0 °F 73% 30.57 in 0.5 mi North 3.5 mph - N/A Fog Light Freezing Fog
7:53 AM 12.0 °F - 6.1 °F 77% 30.58 in 0.5 mi Calm Calm - N/A Fog Light Freezing Fog
8:53 AM 15.1 °F 9.4 °F 9.0 °F 77% 30.60 in 0.2 mi ENE 3.5 mph - N/A Fog Light Freezing Fog
9:53 AM 17.1 °F - 12.0 °F 81% 30.60 in 0.2 mi Calm Calm - N/A Fog Light Freezing Fog
10:53 AM 18.0 °F 11.1 °F 12.9 °F 81% 30.63 in 0.2 mi East 4.6 mph - N/A   Haze
11:53 AM 18.0 °F 9.8 °F 12.0 °F 78% 30.63 in 0.2 mi East 5.8 mph - N/A   Haze
12:53 PM 19.0 °F - 12.0 °F 74% 30.65 in 0.2 mi Calm Calm - N/A   Haze
1:53 PM 18.0 °F - 10.9 °F 74% 30.66 in 0.2 mi Calm Calm - N/A   Haze
2:35 PM 15.8 °F - 10.4 °F 79% 30.63 in 2.0 mi Calm Calm - N/A   Haze
2:53 PM 17.1 °F - 10.9 °F 77% 30.66 in 4.0 mi Calm Calm - N/A   Haze
3:53 PM 17.1 °F - 10.0 °F 74% 30.68 in 10.0 mi Calm Calm - N/A   Clear
4:53 PM 10.9 °F 4.7 °F 5.0 °F 77% 30.68 in 10.0 mi ENE 3.5 mph - N/A   Scattered Clouds
5:53 PM 14.0 °F - 7.0 °F 74% 30.69 in 10.0 mi Calm Calm - N/A   Scattered Clouds
6:29 PM 12.2 °F - 6.8 °F 79% 30.67 in 0.2 mi Calm Calm - N/A   Haze
6:53 PM 14.0 °F - 8.1 °F 77% 30.68 in 0.2 mi Calm Calm - N/A   Haze
7:35 PM 12.2 °F 2.9 °F 6.8 °F 79% 30.68 in 1.0 mi East 5.8 mph - N/A   Haze
7:41 PM 12.2 °F 4.3 °F 5.0 °F 73% 30.68 in 9.0 mi East 4.6 mph - N/A   Scattered Clouds
7:53 PM 10.0 °F 3.6 °F 3.9 °F 76% 30.69 in 10.0 mi East 3.5 mph - N/A   Partly Cloudy
8:53 PM 10.9 °F - 3.9 °F 73% 30.71 in 10.0 mi Calm Calm - N/A   Clear
9:31 PM 8.6 °F - 1.4 °F 73% 30.71 in 10.0 mi Calm Calm - N/A   Scattered Clouds
9:53 PM 10.0 °F - 3.0 °F 73% 30.72 in 6.0 mi Calm Calm - N/A   Scattered Clouds
10:53 PM 12.0 °F - 3.9 °F 70% 30.70 in 6.0 mi Calm Calm - N/A   Scattered Clouds
11:53 PM 10.0 °F - 1.9 °F 70% 30.72 in 6.0 mi Calm Calm - N/A   Scattered Clouds